Akron, CO

11:03 AM MST on February 07, 2016 (GMT -0700)
Akron-Washington County

Weather History for KAKO - December, 2012

Change the Weather History Date:

Sunday, December 23, 2012

  Actual Average Record
Temperature  
Mean Temperature 33 °F 28 °F  
Max Temperature 45 °F 39 °F 72 °F (1964)
Min Temperature 20 °F 16 °F -11 °F (1983)
Degree Days  
Heating Degree Days 32    
Month to date heating degree days 701  
Cooling Degree Days 0    
Month to date cooling degree days 0  
Moisture  
Dew Point 14 °F    
Average Humidity 51    
Maximum Humidity 65    
Minimum Humidity 37    
Precipitation  
Precipitation 0.00 in 0.01 in 0.09 in (1965)
Month to date precipitation 0.13 0.32  
Year to date precipitation 7.98 16.66  
Sea Level Pressure  
Sea Level Pressure 29.97 in    
Wind  
Wind Speed 12 mph (WNW)    
Max Wind Speed 20 mph    
Max Gust Speed 23 mph    
Visibility 10 miles    
Events      
T = Trace of Precipitation, MM = Missing Value Source: NWS Daily Summary

Daily Weather History Graph

Daily Weather History Graph

Search for Another Location

Airport or City:

Trip Planner

Search our weather history database for the weather conditions in past years. The results will help you decide how hot, cold, wet, or windy it might be!

Date:

Astronomy

Dec. 23, 2012 Rise Set
Actual Time 7:12 AM MST 4:31 PM MST
Civil Twilight 6:42 AM MST 5:02 PM MST
Nautical Twilight 6:08 AM MST 5:36 PM MST
Astronomical Twilight 5:34 AM MST 6:09 PM MST
Moon 1:23 PM MST (12/23) 2:57 AM MST (12/23)
Length of Visible Light 10h 20m
Length of Day
9h 18m
Waxing Gibbous, 82% of the Moon is Illuminated
Dec 23
Waxing Gibbous
Dec 28
Full
Jan 4
Last Quarter
Jan 11
New
Jan 18
First Quarter

Hourly Weather History & Observations

Time (MST) Temp. Windchill Dew Point Humidity Pressure Visibility Wind Dir Wind Speed Gust Speed Precip Events Conditions
12:53 AM 30.9 °F 20.7 °F 10.0 °F 42% 29.91 in 10.0 mi SSW 13.8 mph - N/A   Clear
1:53 AM 28.9 °F 19.8 °F 10.0 °F 45% 29.92 in 10.0 mi SSW 10.4 mph - N/A   Clear
2:53 AM 28.9 °F 18.6 °F 9.0 °F 43% 29.90 in 10.0 mi SSW 12.7 mph - N/A   Clear
3:53 AM 26.1 °F 14.5 °F 9.0 °F 49% 29.91 in 10.0 mi WSW 13.8 mph - N/A   Clear
5:53 AM 26.1 °F 14.0 °F 9.0 °F 49% 29.90 in 10.0 mi West 15.0 mph - N/A   Clear
6:53 AM 19.9 °F 5.7 °F 8.1 °F 60% 29.94 in 10.0 mi West 16.1 mph - N/A   Clear
7:53 AM 21.9 °F 9.2 °F 9.0 °F 58% 29.97 in 10.0 mi West 13.8 mph - N/A   Clear
8:53 AM 28.9 °F 18.2 °F 10.9 °F 47% 29.96 in 10.0 mi West 13.8 mph - N/A   Clear
9:53 AM 35.1 °F 25.9 °F 15.1 °F 44% 29.96 in 10.0 mi NW 13.8 mph - N/A   Clear
11:53 AM 39.9 °F 32.5 °F 19.9 °F 45% 29.93 in 10.0 mi NW 12.7 mph - N/A   Clear
12:53 PM 42.1 °F 35.2 °F 21.9 °F 45% 29.91 in 10.0 mi NNW 12.7 mph - N/A   Clear
1:53 PM 45.0 °F 37.6 °F 21.0 °F 39% 29.93 in 10.0 mi North 17.3 mph - N/A   Clear
2:53 PM 44.1 °F 37.4 °F 19.9 °F 38% 29.94 in 10.0 mi North 13.8 mph - N/A   Clear
3:53 PM 39.9 °F 32.5 °F 21.0 °F 47% 29.96 in 10.0 mi North 12.7 mph - N/A   Clear
4:53 PM 37.0 °F 27.4 °F 18.0 °F 46% 29.99 in 10.0 mi North 17.3 mph - N/A   Clear
5:53 PM 30.9 °F 25.2 °F 17.1 °F 57% 30.03 in 10.0 mi North 5.8 mph - N/A   Clear
6:53 PM 30.9 °F 22.8 °F 15.1 °F 52% 30.05 in 10.0 mi NNW 9.2 mph - N/A   Clear
7:53 PM 30.9 °F - 12.9 °F 47% 30.05 in 10.0 mi Calm Calm - N/A   Clear
8:53 PM 28.9 °F - 12.9 °F 51% 30.04 in 10.0 mi Calm Calm - N/A   Clear
9:53 PM 27.0 °F - 12.9 °F 56% 30.02 in 10.0 mi Calm Calm - N/A   Clear
10:53 PM 23.0 °F 17.0 °F 12.0 °F 63% 30.04 in 10.0 mi SSW 4.6 mph - N/A   Clear
11:53 PM 21.9 °F 17.2 °F 12.0 °F 66% 30.02 in 10.0 mi South 3.5 mph - N/A   Clear